This is the latest recevied weather packets stored in our database for station/object Seibranz. If no packets are shown the sender has not sent any weather packets the latest 10 day(s).
| Time | Temp. | Humidity | Pressure | Rain* | Wind** | Luminosity | Snow |
|---|---|---|---|---|---|---|---|
| 1777491129 | 10° C | 48% | 1020.5 hPa | 0 mm | - | - | - |
| 1777489330 | 10° C | 51% | 1020.1 hPa | 0 mm | - | - | - |
| 1777487531 | 11.11° C | 47% | 1019.8 hPa | 0 mm | - | - | - |
| 1777485731 | 12.22° C | 44% | 1019.3 hPa | 0 mm | - | - | - |
| 1777483931 | 13.33° C | 43% | 1019.1 hPa | 0 mm | - | - | - |
| 1777482131 | 13.89° C | 42% | 1019.1 hPa | 0 mm | - | - | - |
| 1777480336 | 14.44° C | 42% | 1018.9 hPa | 0 mm | - | - | - |
| 1777478530 | 15° C | 41% | 1018.8 hPa | 0 mm | - | - | - |
| 1777476730 | 15.56° C | 39% | 1018.6 hPa | 0 mm | - | - | - |
| 1777474931 | 15.56° C | 39% | 1018.7 hPa | 0 mm | - | - | - |
| 1777473135 | 15.56° C | 40% | 1018.7 hPa | 0 mm | - | - | - |
| 1777471331 | 15.56° C | 40% | 1018.9 hPa | 0 mm | - | - | - |
| 1777469531 | 15.56° C | 44% | 1018.5 hPa | 0 mm | - | - | - |
| 1777467730 | 15.56° C | 47% | 1018.6 hPa | 0 mm | - | - | - |
| 1777465932 | 15.56° C | 51% | 1018.6 hPa | 0 mm | - | - | - |
| 1777464131 | 15.56° C | 51% | 1018.5 hPa | 0 mm | - | - | - |
| 1777462330 | 14.44° C | 51% | 1018.7 hPa | 0 mm | - | - | - |
| 1777460530 | 13.89° C | 51% | 1018.5 hPa | 0 mm | - | - | - |
| 1777458730 | 13.89° C | 58% | 1018.6 hPa | 0 mm | - | - | - |
| 1777456931 | 13.33° C | 63% | 1018.6 hPa | 0 mm | - | - | - |
| 1777455131 | 12.22° C | 61% | 1018.6 hPa | 0 mm | - | - | - |
| 1777453332 | 11.67° C | 64% | 1018.4 hPa | 0 mm | - | - | - |
| 1777451531 | 10° C | 65% | 1018.4 hPa | 0 mm | - | - | - |
| 1777449731 | 8.89° C | 67% | 1018.6 hPa | 0 mm | - | - | - |
| 1777447931 | 8.33° C | 67% | 1018.1 hPa | 0 mm | - | - | - |
* Rain since midnight (hover to see other rain measurements)
** Current wind speed in m/s (hover to see current wind gust speed)